Flag Weather past 2 weeks in Sankt Ingbert, Saarland, Germany

Now
40 °F

Fog.


Feels Like: 35 °F
Forecast: 34 / 41 °F
Wind: 7 mph from East

Location: Saarbruecken / Ensheim

Current Time: Nov 28, 2014 at 10:09:33 AM

Latest Report: Nov 28, 2014 at 9:00 AM


Visibility: 3 mi

Pressure: 29.79 "Hg

Humidity: 96%

Dew point: 38 °F

Location of Sankt IngbertLocation

Historic Weather in Sankt Ingbert — Graph

°F

Sankt Ingbert temperature yesterday

Maximum temperature yesterday: 43 °F (at 3:00 PM)
Minimum temperature yesterday: 40 °F (at 4:00 AM)
Average temperature yesterday: 41 °F

Past Weeks' High & Low Weather Summary

 TemperatureHumidityPressure
High55 °F (Nov 22, 2:00 PM)100% (Nov 13, 9:00 AM)30.31 "Hg (Nov 13, 9:00 AM)
Low38 °F (Nov 21, 8:00 AM)79% (Nov 17, 1:00 PM)29.57 "Hg (Nov 16, 3:00 PM)
Average44 °F95%29.97 "Hg
* Reported Nov 13 9:00 AM — Nov 28 9:00 AM, Sankt Ingbert, Weather by CustomWeather, © 2014

Note: Actual official high and low records may vary slightly from our data, if they occured in-between our weather recording intervals... More about our weather records

Advertising

Sankt Ingbert weather history for previous 24 hours

 ConditionsComfort  
Time TempWeatherWind HumidityBarometerVisibility
9:00 AM
Nov 28
40 °FFog.7 mph96%29.79 "Hg3 mi
8:00 AM40 °FFog.7 mph97%29.78 "Hg2 mi
7:00 AM40 °FFog.8 mph98%29.78 "Hg16 mi
6:00 AM40 °FFog.6 mph99%29.78 "Hg3 mi
5:00 AM41 °FFog.7 mph100%29.77 "Hg2 mi
4:00 AM40 °FFog.8 mph98%29.77 "Hg4 mi
3:00 AM40 °FFog.7 mph98%29.79 "Hg4 mi
2:00 AM40 °FFog.7 mph98%29.79 "Hg4 mi
1:00 AM40 °FFog.7 mph98%29.79 "Hg4 mi
12:00 AM40 °FFog.7 mph97%29.79 "Hg4 mi
11:00 PM
Nov 27
41 °FFog.6 mph98%29.80 "Hg4 mi
10:00 PM41 °FFog.6 mph98%29.79 "Hg3 mi
9:00 PM42 °FFog.6 mph100%29.79 "Hg2 mi
8:00 PM42 °FFog.6 mph99%29.78 "Hg1 mi
7:00 PM42 °FFog.7 mph100%29.78 "Hg1 mi
6:00 PM42 °FFog.6 mph99%29.77 "Hg1 mi
5:00 PM42 °FFog.7 mph99%29.77 "Hg2 mi
4:00 PM43 °FLow clouds.6 mph99%29.76 "Hg2 mi
3:00 PM43 °FLight rain. Low clouds.6 mph100%29.76 "Hg1 mi
2:00 PM42 °FLight rain. Low clouds.3 mph100%29.79 "Hg1 mi
1:00 PM42 °FLight rain. Low clouds.5 mph100%29.79 "Hg1 mi
12:00 PM42 °FFog.5 mph100%29.81 "Hg1 mi
11:00 AM42 °FFog.5 mph100%29.82 "Hg1 mi
10:00 AM42 °FFog.5 mph98%29.83 "Hg2 mi
Weather by CustomWeather, © 2014

See weather overviewHow to use our weather pages